Change the Weather History Date:

Tuesday, January 22, 2013

  Actual Average (KFLG) Record (KFLG)
Temperature  
Mean Temperature 42 °F 30 °F  
Max Temperature 57 °F 43 °F 62 °F (1970)
Min Temperature 26 °F 18 °F -30 °F (1937)
Degree Days  
Heating Degree Days 24 35  
Month to date heating degree days 776  
Since 1 July heating degree days 3604  
Cooling Degree Days 0 0  
Month to date cooling degree days 0  
Year to date cooling degree days 0  
Moisture  
Dew Point 9 °F    
Average Humidity 32    
Maximum Humidity 64    
Minimum Humidity 12    
Precipitation  
Precipitation 0.00 in 0.05 in 1.53 in (1909)
Month to date precipitation 1.49  
Year to date precipitation 1.49  
Snow  
Snow 0.00 in 0.70 in 14.90 in (2010)
Month to date snowfall 16.1  
Since 1 July snowfall 45.2  
Snow Depth -    
Sea Level Pressure  
Sea Level Pressure 30.38 in    
Wind  
Wind Speed 8 mph (SSE)    
Max Wind Speed 13 mph    
Max Gust Speed -    
Visibility 10 miles    
Events      
T = Trace of Precipitation, MM = Missing Value Source: NWS Daily Summary

Daily Weather History Graph

Daily Weather History Graph

Search for Another Location

Airport or City:

Trip Planner

Search our weather history database for the weather conditions in past years. The results will help you decide how hot, cold, wet, or windy it might be!

Date:

Astronomy

Jan. 22, 2013 Rise Set
Actual Time 7:34 AM MST 5:47 PM MST
Civil Twilight 7:06 AM MST 6:14 PM MST
Nautical Twilight 6:36 AM MST 6:45 PM MST
Astronomical Twilight 6:05 AM MST 7:15 PM MST
Moon 2:14 PM MST (1/22) 3:57 AM MST (1/22)
Length of Visible Light 11h 07m
Length of Day
10h 12m
Waxing Gibbous, 83% of the Moon is Illuminated
Jan 22
Waxing Gibbous
Jan 26
Full
Feb 3
Last Quarter
Feb 10
New
Feb 17
First Quarter

Hourly Weather History & Observations

Time (MST) Temp. Windchill Dew Point Humidity Pressure Visibility Wind Dir Wind Speed Gust Speed Precip Events Conditions
12:15 AM 32.0 °F 23.6 °F 5.0 °F 32% 30.35 in 10.0 mi SSE 10.4 mph - N/A   Clear
12:55 AM 30.2 °F 20.2 °F 6.8 °F 37% 30.36 in 10.0 mi SSE 12.7 mph - N/A   Clear
1:15 AM 30.2 °F 23.4 °F 3.2 °F 32% 30.36 in 10.0 mi SE 6.9 mph - N/A   Clear
1:35 AM 30.2 °F 24.3 °F 3.2 °F 32% 30.36 in 10.0 mi SE 5.8 mph - N/A   Clear
1:55 AM 32.0 °F 26.4 °F 1.4 °F 27% 30.37 in 10.0 mi ESE 5.8 mph - N/A   Clear
2:15 AM 32.0 °F 25.6 °F 3.2 °F 30% 30.38 in 10.0 mi ESE 6.9 mph - N/A   Clear
2:35 AM 32.0 °F 24.8 °F 3.2 °F 30% 30.39 in 10.0 mi ESE 8.1 mph - N/A   Clear
2:55 AM 28.4 °F 23.3 °F 5.0 °F 37% 30.39 in 10.0 mi ESE 4.6 mph - N/A   Clear
3:15 AM 32.0 °F 24.8 °F 5.0 °F 32% 30.39 in 10.0 mi SE 8.1 mph - N/A   Clear
3:35 AM 32.0 °F 27.5 °F 3.2 °F 30% 30.39 in 10.0 mi SE 4.6 mph - N/A   Clear
3:55 AM 32.0 °F 24.8 °F 3.2 °F 30% 30.38 in 10.0 mi SE 8.1 mph - N/A   Clear
4:15 AM 30.2 °F 24.3 °F 5.0 °F 34% 30.39 in 10.0 mi SE 5.8 mph - N/A   Clear
4:35 AM 26.6 °F 18.2 °F 5.0 °F 40% 30.38 in 10.0 mi SE 8.1 mph - N/A   Clear
5:15 AM 28.4 °F 20.4 °F 5.0 °F 37% 30.38 in 10.0 mi SSE 8.1 mph - N/A   Clear
5:35 AM 28.4 °F 19.7 °F 5.0 °F 37% 30.38 in 10.0 mi SE 9.2 mph - N/A   Clear
5:55 AM 26.6 °F 17.5 °F 6.8 °F 43% 30.38 in 10.0 mi SE 9.2 mph - N/A   Clear
6:15 AM 26.6 °F 16.8 °F 5.0 °F 40% 30.38 in 10.0 mi SSE 10.4 mph - N/A   Clear
6:35 AM 28.4 °F 19.1 °F 5.0 °F 37% 30.39 in 10.0 mi SSE 10.4 mph - N/A   Clear
6:55 AM 26.6 °F 16.2 °F 6.8 °F 43% 30.38 in 10.0 mi SSE 11.5 mph - N/A   Clear
7:15 AM 26.6 °F 16.2 °F 6.8 °F 43% 30.38 in 10.0 mi SSE 11.5 mph - N/A   Clear
7:35 AM 28.4 °F 18.0 °F 5.0 °F 37% 30.38 in 10.0 mi SSE 12.7 mph - N/A   Clear
7:55 AM 28.4 °F 18.5 °F 5.0 °F 37% 30.38 in 10.0 mi SSE 11.5 mph - N/A   Clear
8:15 AM 30.2 °F 21.3 °F 5.0 °F 34% 30.39 in 10.0 mi SSE 10.4 mph - N/A   Clear
8:35 AM 32.0 °F 24.2 °F 6.8 °F 35% 30.39 in 10.0 mi SSE 9.2 mph - N/A   Clear
8:55 AM 33.8 °F 27.0 °F 6.8 °F 32% 30.40 in 10.0 mi SSE 8.1 mph - N/A   Clear
9:15 AM 35.6 °F 29.2 °F 10.4 °F 35% 30.40 in 10.0 mi SSE 8.1 mph - N/A   Clear
9:35 AM 37.4 °F 32.1 °F 12.2 °F 36% 30.40 in 10.0 mi SE 6.9 mph - N/A   Clear
9:55 AM 44.6 °F 40.7 °F 8.6 °F 23% 30.40 in 10.0 mi SE 6.9 mph - N/A   Clear
10:15 AM 46.4 °F 43.5 °F 10.4 °F 23% 30.41 in 10.0 mi SSE 5.8 mph - N/A   Clear
10:35 AM 48.2 °F - 8.6 °F 20% 30.41 in 10.0 mi SSE 5.8 mph - N/A   Clear
10:55 AM 50.0 °F - 6.8 °F 17% 30.41 in 10.0 mi SE 6.9 mph - N/A   Clear
11:15 AM 50.0 °F - 8.6 °F 19% 30.40 in 10.0 mi SE 5.8 mph - N/A   Clear
11:35 AM 53.6 °F - 6.8 °F 15% 30.40 in 10.0 mi SE 8.1 mph - N/A   Clear
11:55 AM 53.6 °F - 6.8 °F 15% 30.39 in 10.0 mi ESE 9.2 mph - N/A   Clear
12:15 PM 53.6 °F - 5.0 °F 14% 30.39 in 10.0 mi SE 9.2 mph - N/A   Clear
12:35 PM 55.4 °F - 5.0 °F 13% 30.38 in 10.0 mi ESE 9.2 mph - N/A   Clear
12:55 PM 55.4 °F - 5.0 °F 13% 30.37 in 10.0 mi SE 8.1 mph - N/A   Clear
1:15 PM 55.4 °F - 6.8 °F 14% 30.36 in 10.0 mi SE 6.9 mph - N/A   Clear
1:35 PM 57.2 °F - 14.0 °F 18% 30.36 in 10.0 mi West 4.6 mph - N/A   Clear
1:55 PM 53.6 °F - 14.0 °F 21% 30.35 in 10.0 mi West 6.9 mph - N/A   Clear
2:15 PM 53.6 °F - 14.0 °F 21% 30.35 in 10.0 mi West 6.9 mph - N/A   Clear
2:35 PM 53.6 °F - 15.8 °F 22% 30.36 in 10.0 mi West 6.9 mph - N/A   Clear
2:55 PM 53.6 °F - 15.8 °F 22% 30.37 in 10.0 mi West 6.9 mph - N/A   Clear
3:15 PM 53.6 °F - 14.0 °F 21% 30.36 in 10.0 mi West 5.8 mph - N/A   Clear
3:35 PM 53.6 °F - 15.8 °F 22% 30.36 in 10.0 mi WNW 6.9 mph - N/A   Clear
3:55 PM 53.6 °F - 12.2 °F 19% 30.36 in 10.0 mi WSW 4.6 mph - N/A   Clear
4:15 PM 55.4 °F - 5.0 °F 13% 30.36 in 10.0 mi WSW 5.8 mph - N/A   Clear
4:35 PM 53.6 °F - 6.8 °F 15% 30.36 in 10.0 mi WSW 6.9 mph - N/A   Clear
4:55 PM 53.6 °F - 3.2 °F 13% 30.37 in 10.0 mi WSW 6.9 mph - N/A   Clear
5:15 PM 53.6 °F - 1.4 °F 12% 30.37 in 10.0 mi WSW 3.5 mph - N/A   Clear
5:35 PM 53.6 °F - 1.4 °F 12% 30.37 in 10.0 mi Calm Calm - N/A   Clear
5:55 PM 50.0 °F - 5.0 °F 16% 30.37 in 10.0 mi North - - N/A   Clear
6:15 PM 46.4 °F 43.5 °F 1.4 °F 16% 30.38 in 10.0 mi SSE 5.8 mph - N/A   Clear
6:35 PM 37.4 °F 31.4 °F 10.4 °F 33% 30.38 in 10.0 mi SSE 8.1 mph - N/A   Clear
6:55 PM 35.6 °F 29.2 °F 15.8 °F 44% 30.38 in 10.0 mi SSE 8.1 mph - N/A   Clear
7:15 PM 32.0 °F 23.6 °F 17.6 °F 55% 30.39 in 10.0 mi SSE 10.4 mph - N/A   Clear
7:35 PM 32.0 °F 24.2 °F 15.8 °F 51% 30.39 in 10.0 mi SSE 9.2 mph - N/A   Clear
7:55 PM 32.0 °F 23.6 °F 15.8 °F 51% 30.39 in 10.0 mi SSE 10.4 mph - N/A   Clear
8:15 PM 32.0 °F 24.2 °F 15.8 °F 51% 30.39 in 10.0 mi SSE 9.2 mph - N/A   Clear
8:35 PM 32.0 °F 23.6 °F 14.0 °F 48% 30.39 in 10.0 mi SSE 10.4 mph - N/A   Clear
8:55 PM 32.0 °F 23.6 °F 14.0 °F 48% 30.39 in 10.0 mi SSE 10.4 mph - N/A   Clear
9:15 PM 32.0 °F 23.6 °F 14.0 °F 48% 30.40 in 10.0 mi SSE 10.4 mph - N/A   Clear
9:55 PM 28.4 °F 19.1 °F 15.8 °F 59% 30.42 in 10.0 mi SSE 10.4 mph - N/A   Clear
10:15 PM 28.4 °F 19.1 °F 15.8 °F 59% 30.41 in 10.0 mi SSE 10.4 mph - N/A   Clear
10:35 PM 32.0 °F 24.2 °F 12.2 °F 44% 30.41 in 10.0 mi SSE 9.2 mph - N/A   Clear
10:55 PM 28.4 °F 19.7 °F 14.0 °F 55% 30.41 in 10.0 mi SSE 9.2 mph - N/A   Clear
11:15 PM 28.4 °F 19.7 °F 15.8 °F 59% 30.41 in 10.0 mi SSE 9.2 mph - N/A   Clear
11:35 PM 26.6 °F 17.5 °F 15.8 °F 64% 30.41 in 10.0 mi SSE 9.2 mph - N/A   Clear
11:55 PM 26.6 °F 16.8 °F 15.8 °F 64% 30.41 in 10.0 mi SSE 10.4 mph - N/A   Clear